Location: Lubbock
(33.5779°N, 101.8552°W)
Time: 18:55:13
(UTC-05:00)

N. Korean satellite - Visible Passes

Search period start: 20 September 2020 00:00
Search period end: 30 September 2020 00:00
Orbit: 455 x 503 km, 97.2° (Epoch: 20 September)

Date Brightness Start Highest point End Pass type
(mag) Time Alt. Az. Time Alt. Az. Time Alt. Az.
21 Sep 8.4 06:51:57 10° NNE 06:55:20 36° E 06:58:40 10° SSE visible
22 Sep 9.8 06:26:54 10° NE 06:29:14 16° E 06:31:31 10° SE visible
24 Sep 7.2 07:07:05 10° NNE 07:10:40 62° E 07:14:11 10° S visible
25 Sep 9.1 06:41:33 10° NE 06:44:36 25° E 06:47:36 10° SSE visible
26 Sep 10.1 06:17:14 10° ENE 06:18:26 11° E 06:19:39 10° ESE visible
28 Sep 8.0 06:56:30 10° NNE 06:59:56 42° E 07:03:17 10° S visible
29 Sep 9.7 06:31:16 10° NE 06:33:49 18° E 06:36:19 10° SE visible
